Change the Weather History Date:

Tuesday, February 4, 2014

  Actual Average (KLWD) Record (KLWD)
Temperature  
Mean Temperature 14 °F 26 °F  
Max Temperature 20 °F 35 °F 59 °F (2005)
Min Temperature 7 °F 16 °F -11 °F (1982)
Degree Days  
Heating Degree Days 52 39  
Month to date heating degree days 159  
Since 1 July heating degree days 3851  
Cooling Degree Days 0 0  
Month to date cooling degree days 0  
Year to date cooling degree days 0  
Moisture  
Dew Point 12 °F    
Average Humidity 81    
Maximum Humidity 89    
Minimum Humidity 63    
Precipitation  
Precipitation 0.00 in 0.05 in 0.84 in (1971)
Month to date precipitation 0.18  
Sea Level Pressure  
Sea Level Pressure 30.24 in    
Wind  
Wind Speed 8 mph (NNE)    
Max Wind Speed 22 mph    
Max Gust Speed 28 mph    
Visibility 5 miles    
Events Snow    
T = Trace of Precipitation, MM = Missing Value Source: NWS Daily Summary

Daily Weather History Graph

Daily Weather History Graph

Search for Another Location

Airport or City:

Trip Planner

Search our weather history database for the weather conditions in past years. The results will help you decide how hot, cold, wet, or windy it might be!

Date:

Astronomy

Feb. 04, 2014 Rise Set
Actual Time 7:22 AM CST 5:35 PM CST
Civil Twilight 6:53 AM CST 6:04 PM CST
Nautical Twilight 6:20 AM CST 6:37 PM CST
Astronomical Twilight 5:48 AM CST 7:09 PM CST
Moon 9:57 AM CST (2/4) 11:33 PM CST (2/4)
Length of Visible Light 11h 11m
Length of Day
10h 13m
Waxing Crescent, 29% of the Moon is Illuminated
Feb 4
Waxing Crescent
Feb 6
First Quarter
Feb 14
Full
Feb 22
Last Quarter
Mar 1
New

Hourly Weather History & Observations

Time (CST) Temp. Windchill Dew Point Humidity Pressure Visibility Wind Dir Wind Speed Gust Speed Precip Events Conditions
12:15 AM 19.9 °F - 11.7 °F 70% 30.29 in 10.0 mi Calm Calm - N/A   Overcast
12:35 AM 19.9 °F - 12.6 °F 73% 30.29 in 10.0 mi Calm Calm - N/A   Overcast
12:55 AM 19.9 °F 14.9 °F 11.7 °F 70% 30.28 in 10.0 mi North 3.5 mph - N/A   Overcast
1:15 AM 20.1 °F - 11.5 °F 69% 30.28 in 10.0 mi Calm Calm - N/A   Overcast
1:35 AM 19.9 °F 14.9 °F 12.4 °F 72% 30.27 in 10.0 mi North 3.5 mph - N/A   Overcast
1:55 AM 19.9 °F 14.9 °F 11.8 °F 71% 30.28 in 10.0 mi North 3.5 mph - N/A   Overcast
2:15 AM 20.1 °F 13.6 °F 12.0 °F 71% 30.28 in 10.0 mi NNE 4.6 mph - N/A   Overcast
2:35 AM 20.1 °F 13.6 °F 12.2 °F 71% 30.28 in 10.0 mi NNE 4.6 mph - N/A   Overcast
2:55 AM 19.9 °F 13.4 °F 12.7 °F 74% 30.28 in 10.0 mi NNE 4.6 mph - N/A   Overcast
3:15 AM 19.9 °F 10.1 °F 12.9 °F 74% 30.28 in 10.0 mi NNE 8.1 mph - N/A   Overcast
3:35 AM 19.4 °F 10.4 °F 14.0 °F 80% 30.28 in 10.0 mi NE 6.9 mph - N/A   Overcast
3:55 AM 19.0 °F 11.1 °F 14.2 °F 81% 30.28 in 10.0 mi NNE 5.8 mph - N/A   Overcast
4:15 AM 19.0 °F 12.3 °F 14.5 °F 83% 30.28 in 10.0 mi NE 4.6 mph - N/A   Overcast
4:35 AM 19.0 °F 13.9 °F 14.7 °F 83% 30.29 in 10.0 mi ENE 3.5 mph - N/A   Overcast
4:55 AM 19.0 °F 12.3 °F 15.3 °F 85% 30.29 in 10.0 mi ENE 4.6 mph - N/A   Overcast
5:15 AM 19.0 °F 11.1 °F 15.1 °F 85% 30.28 in 10.0 mi ENE 5.8 mph - N/A   Overcast
5:35 AM 18.7 °F 9.5 °F 14.7 °F 85% 30.29 in 10.0 mi East 6.9 mph - N/A   Overcast
5:55 AM 18.5 °F 11.7 °F 14.0 °F 83% 30.31 in 10.0 mi East 4.6 mph - N/A   Overcast
6:15 AM 18.5 °F 13.3 °F 14.0 °F 83% 30.31 in 10.0 mi ENE 3.5 mph - N/A   Overcast
6:35 AM 18.5 °F 11.7 °F 14.5 °F 85% 30.30 in 10.0 mi NE 4.6 mph - N/A   Overcast
6:55 AM 18.1 °F 7.9 °F 14.5 °F 86% 30.30 in 10.0 mi NNE 8.1 mph - N/A   Overcast
7:15 AM 18.1 °F 7.9 °F 13.6 °F 83% 30.29 in 10.0 mi NE 8.1 mph - N/A   Overcast
7:35 AM 18.3 °F 7.3 °F 12.6 °F 78% 30.30 in 10.0 mi NE 9.2 mph - N/A   Overcast
7:55 AM 18.5 °F 7.5 °F 10.9 °F 72% 30.30 in 10.0 mi NE 9.2 mph - N/A   Overcast
8:15 AM 18.5 °F 8.4 °F 9.9 °F 69% 30.29 in 10.0 mi NE 8.1 mph - N/A   Overcast
8:35 AM 18.3 °F 6.6 °F 10.6 °F 72% 30.28 in 10.0 mi NE 10.4 mph - N/A   Overcast
8:55 AM 18.5 °F 6.8 °F 10.4 °F 71% 30.27 in 10.0 mi NE 10.4 mph - N/A   Overcast
9:15 AM 19.0 °F 7.5 °F 9.3 °F 66% 30.26 in 10.0 mi NE 10.4 mph - N/A   Overcast
9:35 AM 19.0 °F 7.5 °F 8.2 °F 63% 30.27 in 10.0 mi ENE 10.4 mph - N/A   Overcast
9:55 AM 19.4 °F 7.9 °F 9.0 °F 64% 30.28 in 10.0 mi ENE 10.4 mph - N/A   Overcast
10:15 AM 19.2 °F 7.7 °F 9.5 °F 66% 30.29 in 10.0 mi ENE 10.4 mph - N/A   Overcast
10:35 AM 19.4 °F 7.9 °F 10.0 °F 67% 30.29 in 10.0 mi East 10.4 mph 16.1 mph N/A   Overcast
10:55 AM 18.9 °F 6.5 °F 12.6 °F 76% 30.29 in 1.8 mi East 11.5 mph - N/A Snow Light Snow
11:15 AM 18.5 °F 6.1 °F 13.5 °F 81% 30.28 in 1.8 mi ENE 11.5 mph - N/A Snow Light Snow
11:35 AM 18.5 °F 5.5 °F 13.5 °F 81% 30.25 in 2.5 mi ENE 12.7 mph - N/A Snow Light Snow
11:55 AM 18.1 °F 5.0 °F 14.0 °F 84% 30.23 in 2.0 mi NE 12.7 mph - N/A Snow Light Snow
12:15 PM 18.0 °F 5.4 °F 13.8 °F 84% 30.23 in 2.5 mi NE 11.5 mph - N/A Snow Light Snow
12:35 PM 18.3 °F 7.3 °F 13.1 °F 80% 30.23 in 2.5 mi NE 9.2 mph - N/A Snow Light Snow
12:55 PM 18.3 °F 6.6 °F 13.6 °F 82% 30.22 in 1.8 mi ENE 10.4 mph - N/A Snow Light Snow
1:15 PM 18.1 °F 5.6 °F 13.8 °F 83% 30.22 in 1.2 mi NE 11.5 mph - N/A Snow Light Snow
1:35 PM 17.8 °F 4.6 °F 14.0 °F 85% 30.22 in 1.2 mi NE 12.7 mph - N/A Snow Light Snow
1:55 PM 17.6 °F 4.3 °F 14.2 °F 86% 30.18 in 2.5 mi NNE 12.7 mph - N/A Snow Light Snow
2:15 PM 17.4 °F 4.1 °F 14.0 °F 86% 30.17 in 1.8 mi NNE 12.7 mph - N/A Snow Light Snow
2:35 PM 17.1 °F 2.5 °F 13.5 °F 86% 30.16 in 2.5 mi NNE 15.0 mph - N/A Snow Light Snow
2:55 PM 16.7 °F 2.6 °F 13.5 °F 87% 30.16 in 1.2 mi North 13.8 mph 19.6 mph N/A Snow Light Snow
3:15 PM 16.7 °F 3.2 °F 13.5 °F 87% 30.17 in 1.2 mi NNE 12.7 mph 18.4 mph N/A Snow Light Snow
3:35 PM 17.1 °F 5.0 °F 13.8 °F 87% 30.18 in 1.5 mi NNE 10.4 mph - N/A Snow Light Snow
3:55 PM 17.2 °F 3.3 °F 14.0 °F 87% 30.18 in 1.2 mi NNE 13.8 mph - N/A Snow Light Snow
4:15 PM 17.1 °F 4.3 °F 14.2 °F 88% 30.17 in 0.5 mi North 11.5 mph - N/A Snow Light Snow
4:35 PM 16.7 °F 2.0 °F 14.0 °F 89% 30.17 in 0.8 mi NNE 15.0 mph 18.4 mph N/A Snow Light Snow
4:55 PM 16.7 °F 3.2 °F 14.0 °F 89% 30.17 in 1.0 mi NNE 12.7 mph - N/A Snow Light Snow
5:15 PM 16.7 °F 3.2 °F 14.0 °F 89% 30.17 in 0.8 mi North 12.7 mph 20.7 mph N/A Snow Light Snow
5:35 PM 16.3 °F 1.0 °F 13.1 °F 87% 30.17 in 1.2 mi North 16.1 mph 19.6 mph N/A Snow Light Snow
6:15 PM 15.8 °F 0.3 °F 12.7 °F 88% 30.17 in 1.8 mi North 16.1 mph 20.7 mph N/A Snow Light Snow
6:35 PM 15.4 °F 0.4 °F 12.6 °F 88% 30.17 in 1.2 mi North 15.0 mph 20.7 mph N/A Snow Light Snow
6:55 PM 15.3 °F -0.9 °F 12.2 °F 88% 30.16 in 2.0 mi North 17.3 mph 21.9 mph N/A Snow Light Snow
7:15 PM 15.1 °F -0.6 °F 12.0 °F 88% 30.17 in 2.5 mi North 16.1 mph 21.9 mph N/A Snow Light Snow
7:35 PM 14.4 °F -3.8 °F 10.9 °F 86% 30.16 in 2.0 mi North 21.9 mph 27.6 mph N/A Snow Light Snow
7:55 PM 14.0 °F -3.4 °F 10.8 °F 87% 30.18 in 1.2 mi North 19.6 mph 23.0 mph N/A Snow Light Snow
8:15 PM 13.6 °F -3.0 °F 10.4 °F 87% 30.19 in 1.5 mi North 17.3 mph 21.9 mph N/A Snow Light Snow
8:35 PM 13.1 °F -3.1 °F 9.5 °F 86% 30.20 in 1.5 mi North 16.1 mph 20.7 mph N/A Snow Light Snow
8:55 PM 12.9 °F -3.9 °F 9.5 °F 86% 30.21 in 1.5 mi North 17.3 mph 25.3 mph N/A Snow Light Snow
9:15 PM 12.7 °F -3.6 °F 9.5 °F 87% 30.21 in 1.8 mi North 16.1 mph - N/A Snow Light Snow
9:35 PM 12.6 °F -3.8 °F 9.1 °F 86% 30.21 in 2.5 mi North 16.1 mph 19.6 mph N/A Snow Light Snow
9:55 PM 12.0 °F -5.1 °F 8.4 °F 85% 30.21 in 2.0 mi North 17.3 mph 26.5 mph N/A Snow Light Snow
10:15 PM 11.8 °F -5.8 °F 8.2 °F 85% 30.22 in 2.5 mi North 18.4 mph 25.3 mph N/A Snow Light Snow
10:35 PM 11.5 °F -6.3 °F 7.9 °F 85% 30.22 in 2.0 mi North 18.4 mph 23.0 mph N/A Snow Light Snow
10:55 PM 11.1 °F -6.2 °F 7.5 °F 85% 30.23 in 1.5 mi NNW 17.3 mph 25.3 mph N/A Snow Light Snow
11:15 PM 9.1 °F -10.3 °F 5.5 °F 85% 30.23 in 2.0 mi NNW 20.7 mph 26.5 mph N/A Snow Light Snow
11:35 PM 7.7 °F -12.2 °F 3.9 °F 85% 30.24 in 1.8 mi NNW 20.7 mph 26.5 mph N/A Snow Light Snow
11:55 PM 7.3 °F -11.1 °F 3.4 °F 84% 30.24 in 1.8 mi NNW 17.3 mph - N/A Snow Light Snow